Location: New Mesquite
(33.1168°N, 96.4336°W)
Time: 15:44:10
(UTC+00:00)

N. Korean satellite - Visible Passes

Search period start: 04 December 2022 00:00
Search period end: 14 December 2022 00:00
Orbit: 421 x 453 km, 97.3° (Epoch: 03 December)

Date Brightness Start Highest point End Pass type
(mag) Time Alt. Az. Time Alt. Az. Time Alt. Az.
04 Dec 7.7 11:19:40 10° NNE 11:22:53 40° E 11:26:03 10° S visible
05 Dec 9.9 10:42:54 10° ENE 10:43:50 11° E 10:44:46 10° ESE visible
05 Dec 7.3 12:13:27 10° NNW 12:16:21 27° WNW 12:19:13 10° SW visible
06 Dec 6.6 11:34:11 10° NNE 11:37:33 71° E 11:40:52 10° S visible
07 Dec 9.3 10:56:10 10° NE 10:58:30 17° E 11:00:48 10° SE visible
07 Dec 7.9 12:28:34 10° NNW 12:30:50 17° WNW 12:33:05 10° WSW visible
08 Dec 6.2 11:48:42 10° N 11:52:03 66° WNW 11:55:20 10° SSW visible
08 Dec 9.5 23:46:49 10° SW 23:49:17 19° W 23:51:46 10° NW visible
09 Dec 8.5 11:10:05 10° NE 11:13:00 27° E 11:15:53 10° SSE visible
09 Dec 8.4 12:44:13 10° NW 12:45:09 11° WNW 12:46:06 10° W visible
10 Dec 6.8 12:03:14 10° N 12:06:22 38° WNW 12:09:27 10° SW visible
11 Dec 9.9 00:02:19 10° WSW 00:03:42 12° W 00:05:06 10° WNW visible
11 Dec 7.4 11:24:06 10° NNE 11:27:20 46° E 11:30:31 10° S visible
12 Dec 9.8 10:46:40 10° ENE 10:48:04 12° E 10:49:27 10° ESE visible
12 Dec 7.4 12:17:48 10° NNW 12:20:32 23° WNW 12:23:13 10° SW visible
13 Dec 6.3 11:38:10 10° NNE 11:41:30 81° ESE 11:44:47 10° S visible
